Flag for France Weather past 2 weeks in Aurillac, France

Now
60 °F

Refreshingly cool.


Feels Like: 59 °F
Forecast: 38 / 67 °F
Wind: 7 mph from Northwest

Location: Aurillac

Current Time: Oct 24, 2014 at 2:53:29 PM

Latest Report: Oct 24, 2014 at 2:00 PM


Visibility: 31 mi

Pressure: 30.09 "Hg

Humidity: 44%

Dew point: 38 °F

Location of AurillacLocation

Historic Weather in Aurillac — Graph

°F

Aurillac temperature yesterday

Maximum temperature yesterday: 57 °F (at 5:00 PM)
Minimum temperature yesterday: 35 °F (at 9:00 AM)
Average temperature yesterday: 45 °F

Past Weeks' High & Low Weather Summary

 TemperatureHumidityPressure
High76 °F (Oct 20, 2:00 PM)98% (Oct 11, 3:00 AM)30.42 "Hg (Oct 11, 3:00 AM)
Low34 °F (Oct 24, 6:00 AM)38% (Oct 11, 5:00 PM)29.60 "Hg (Oct 12, 3:00 PM)
Average57 °F80%30.01 "Hg
* Reported Oct 9 1:00 PM — Oct 24 1:00 PM, Aurillac, Weather by CustomWeather, © 2014

Note: Actual official high and low records may vary slightly from our data, if they occured in-between our weather recording intervals... More about our weather records

Advertising

Aurillac weather history for previous 24 hours

 ConditionsComfort  
Time TempWeatherWind HumidityBarometerVisibility
1:00 PM
Oct 24
58 °FRefreshingly cool.1 mph47%30.11 "Hg31 mi
12:00 PM53 °FCool.3 mph60%30.12 "Hg12 mi
11:00 AM49 °FPassing clouds.No wind71%30.15 "Hg12 mi
10:00 AM42 °FQuite cool.1 mph84%30.18 "Hg12 mi
9:00 AM37 °FPassing clouds.No wind94%30.20 "Hg9 mi
8:00 AM34 °FChilly.2 mph94%30.19 "Hg9 mi
7:00 AM35 °FChilly.No wind96%30.21 "Hg10 mi
6:00 AM34 °FChilly.3 mph98%30.21 "Hg3 mi
5:00 AM34 °FChilly.2 mph98%30.23 "Hg2 mi
4:00 AM34 °FChilly.2 mph98%30.24 "Hg1 mi
3:00 AM37 °FChilly.2 mph97%30.25 "Hg1 mi
2:00 AM37 °FChilly.3 mph96%30.25 "Hg2 mi
1:00 AM38 °FChilly.No wind95%30.24 "Hg3 mi
12:00 AM39 °FChilly.3 mph95%30.24 "Hg2 mi
11:00 PM
Oct 23
40 °FChilly.2 mph92%30.26 "Hg6 mi
10:00 PM44 °FQuite cool.No wind87%30.23 "Hg8 mi
9:00 PM47 °FCool.2 mph76%30.22 "Hg12 mi
8:00 PM48 °FCool.3 mph73%30.21 "Hg11 mi
7:00 PM52 °FCool.6 mph66%30.18 "Hg31 mi
6:00 PM55 °FCool.12 mph58%30.16 "Hg25 mi
5:00 PM57 °FRefreshingly cool.12 mph59%30.17 "Hg12 mi
4:00 PM57 °FPassing clouds.13 mph61%30.18 "Hg19 mi
3:00 PM56 °FCool.10 mph61%30.20 "Hg12 mi
2:00 PM55 °FCool.12 mph63%30.23 "Hg12 mi
Weather by CustomWeather, © 2014

See weather overviewHow to use our weather pages